owner,sensor,date,latitude,longitude,air_pressure(mBar),qcFlag 
TCOON,ioos:station:TCOON:146:1,2014-10-01T00:30:00Z,28.1324,-97.0345,1008.0,1111122 
TCOON,ioos:station:TCOON:146:1,2014-10-01T01:30:00Z,28.1324,-97.0345,1007.9,1111122 
TCOON,ioos:station:TCOON:146:1,2014-10-01T02:30:00Z,28.1324,-97.0345,1008.2,1111122 
TCOON,ioos:station:TCOON:146:1,2014-10-01T04:30:00Z,28.1324,-97.0345,1008.8,1111122 
TCOON,ioos:station:TCOON:146:1,2014-10-01T05:30:00Z,28.1324,-97.0345,1008.7,1111122 
TCOON,ioos:station:TCOON:146:1,2014-10-01T07:00:00Z,28.1324,-97.0345,1008.5,1111122 
TCOON,ioos:station:TCOON:146:1,2014-10-01T11:30:00Z,28.1324,-97.0345,1008.8,1111122 
TCOON,ioos:station:TCOON:146:1,2014-10-01T12:30:00Z,28.1324,-97.0345,1009.2,1111122 
TCOON,ioos:station:TCOON:146:1,2014-10-01T14:30:00Z,28.1324,-97.0345,1010.1,1111122 
TCOON,ioos:station:TCOON:146:1,2014-10-01T20:30:00Z,28.1324,-97.0345,1008.5,1111122 
TCOON,ioos:station:TCOON:146:1,2014-10-01T21:30:00Z,28.1324,-97.0345,1008.1,1111122 
TCOON,ioos:station:TCOON:146:1,2014-10-01T22:30:00Z,28.1324,-97.0345,1008.1,1111122 
TCOON,ioos:station:TCOON:146:1,2014-10-02T03:00:00Z,28.1324,-97.0345,1010.0,1111122 
TCOON,ioos:station:TCOON:146:1,2014-10-02T06:30:00Z,28.1324,-97.0345,1010.1,1111122 
TCOON,ioos:station:TCOON:146:1,2014-10-02T08:30:00Z,28.1324,-97.0345,1009.9,1111122 
TCOON,ioos:station:TCOON:146:1,2014-10-02T09:30:00Z,28.1324,-97.0345,1009.6,1111122 
TCOON,ioos:station:TCOON:146:1,2014-10-02T18:30:00Z,28.1324,-97.0345,1011.7,1111122 
TCOON,ioos:station:TCOON:146:1,2014-10-02T20:30:00Z,28.1324,-97.0345,1010.3,1111122 
TCOON,ioos:station:TCOON:146:1,2014-10-02T21:30:00Z,28.1324,-97.0345,1009.7,1111122 
TCOON,ioos:station:TCOON:146:1,2014-10-02T23:30:00Z,28.1324,-97.0345,1009.8,1111122 
TCOON,ioos:station:TCOON:146:1,2014-10-03T02:30:00Z,28.1324,-97.0345,1010.9,1111122 
TCOON,ioos:station:TCOON:146:1,2014-10-03T04:30:00Z,28.1324,-97.0345,1011.9,1111122 
TCOON,ioos:station:TCOON:146:1,2014-10-03T05:30:00Z,28.1324,-97.0345,1012.9,1111122 
TCOON,ioos:station:TCOON:146:1,2014-10-03T06:30:00Z,28.1324,-97.0345,1012.8,1111122 
TCOON,ioos:station:TCOON:146:1,2014-10-03T10:30:00Z,28.1324,-97.0345,1015.6,1111122 
TCOON,ioos:station:TCOON:146:1,2014-10-03T12:30:00Z,28.1324,-97.0345,1015.8,1111122 
TCOON,ioos:station:TCOON:146:1,2014-10-03T16:30:00Z,28.1324,-97.0345,1018.3,1111122 
TCOON,ioos:station:TCOON:146:1,2014-10-03T18:30:00Z,28.1324,-97.0345,1018.1,1111122 
TCOON,ioos:station:TCOON:146:1,2014-10-03T21:30:00Z,28.1324,-97.0345,1016.3,1111122 
TCOON,ioos:station:TCOON:146:1,2014-10-03T22:30:00Z,28.1324,-97.0345,1016.4,1111122 
TCOON,ioos:station:TCOON:146:1,2014-10-03T23:30:00Z,28.1324,-97.0345,1016.7,1111122 
TCOON,ioos:station:TCOON:146:1,2014-10-04T00:30:00Z,28.1324,-97.0345,1017.5,1111122 
TCOON,ioos:station:TCOON:146:1,2014-10-04T01:30:00Z,28.1324,-97.0345,1018.8,1111122 
TCOON,ioos:station:TCOON:146:1,2014-10-04T02:30:00Z,28.1324,-97.0345,1019.7,1111122 
TCOON,ioos:station:TCOON:146:1,2014-10-04T04:30:00Z,28.1324,-97.0345,1020.5,1111122 
TCOON,ioos:station:TCOON:146:1,2014-10-04T05:30:00Z,28.1324,-97.0345,1020.4,1111122 
TCOON,ioos:station:TCOON:146:1,2014-10-04T06:30:00Z,28.1324,-97.0345,1020.3,1111122 
TCOON,ioos:station:TCOON:146:1,2014-10-04T12:30:00Z,28.1324,-97.0345,1020.1,1111122 
TCOON,ioos:station:TCOON:146:1,2014-10-04T14:30:00Z,28.1324,-97.0345,1020.9,1111122 
TCOON,ioos:station:TCOON:146:1,2014-10-04T18:30:00Z,28.1324,-97.0345,1020.7,1111122 
TCOON,ioos:station:TCOON:146:1,2014-10-04T19:30:00Z,28.1324,-97.0345,1019.7,1111122 
TCOON,ioos:station:TCOON:146:1,2014-10-04T20:30:00Z,28.1324,-97.0345,1018.9,1111122 
TCOON,ioos:station:TCOON:146:1,2014-10-04T21:30:00Z,28.1324,-97.0345,1018.2,1111122 
TCOON,ioos:station:TCOON:146:1,2014-10-04T23:30:00Z,28.1324,-97.0345,1017.7,1111122 
TCOON,ioos:station:TCOON:146:1,2014-10-05T00:30:00Z,28.1324,-97.0345,1017.4,1111122 
TCOON,ioos:station:TCOON:146:1,2014-10-05T03:30:00Z,28.1324,-97.0345,1016.8,1111122 
TCOON,ioos:station:TCOON:146:1,2014-10-05T04:30:00Z,28.1324,-97.0345,1016.6,1111122 
TCOON,ioos:station:TCOON:146:1,2014-10-05T05:30:00Z,28.1324,-97.0345,1016.1,1111122 
TCOON,ioos:station:TCOON:146:1,2014-10-05T07:00:00Z,28.1324,-97.0345,1015.7,1111122 
TCOON,ioos:station:TCOON:146:1,2014-10-05T07:30:00Z,28.1324,-97.0345,1015.5,1111122 
TCOON,ioos:station:TCOON:146:1,2014-10-05T09:30:00Z,28.1324,-97.0345,1014.3,1111122 
TCOON,ioos:station:TCOON:146:1,2014-10-05T13:30:00Z,28.1324,-97.0345,1014.6,1111122 
TCOON,ioos:station:TCOON:146:1,2014-10-05T14:30:00Z,28.1324,-97.0345,1014.7,1111122 
TCOON,ioos:station:TCOON:146:1,2014-10-05T16:30:00Z,28.1324,-97.0345,1014.9,1111122 
TCOON,ioos:station:TCOON:146:1,2014-10-05T17:30:00Z,28.1324,-97.0345,1014.3,1111122 
TCOON,ioos:station:TCOON:146:1,2014-10-05T20:30:00Z,28.1324,-97.0345,1011.2,1111122 
TCOON,ioos:station:TCOON:146:1,2014-10-05T23:30:00Z,28.1324,-97.0345,1010.5,1111122 
TCOON,ioos:station:TCOON:146:1,2014-10-06T04:30:00Z,28.1324,-97.0345,1010.7,1111122 
TCOON,ioos:station:TCOON:146:1,2014-10-06T05:30:00Z,28.1324,-97.0345,1010.5,1111122 
TCOON,ioos:station:TCOON:146:1,2014-10-06T06:30:00Z,28.1324,-97.0345,1010.6,1111122 
TCOON,ioos:station:TCOON:146:1,2014-10-06T14:30:00Z,28.1324,-97.0345,1011.0,1111122 
TCOON,ioos:station:TCOON:146:1,2014-10-06T16:30:00Z,28.1324,-97.0345,1012.1,1111122 
TCOON,ioos:station:TCOON:146:1,2014-10-06T18:30:00Z,28.1324,-97.0345,1011.8,1111122 
TCOON,ioos:station:TCOON:146:1,2014-10-06T20:30:00Z,28.1324,-97.0345,1010.7,1111122 
TCOON,ioos:station:TCOON:146:1,2014-10-07T03:30:00Z,28.1324,-97.0345,1012.1,1111122 
TCOON,ioos:station:TCOON:146:1,2014-10-07T04:30:00Z,28.1324,-97.0345,1012.6,1111122 
TCOON,ioos:station:TCOON:146:1,2014-10-07T05:30:00Z,28.1324,-97.0345,1012.5,1111122 
TCOON,ioos:station:TCOON:146:1,2014-10-07T06:30:00Z,28.1324,-97.0345,1012.5,1111122 
TCOON,ioos:station:TCOON:146:1,2014-10-07T10:30:00Z,28.1324,-97.0345,1012.6,1111122 
TCOON,ioos:station:TCOON:146:1,2014-10-07T12:30:00Z,28.1324,-97.0345,1013.4,1111122 
TCOON,ioos:station:TCOON:146:1,2014-10-07T14:30:00Z,28.1324,-97.0345,1014.7,1111122 
TCOON,ioos:station:TCOON:146:1,2014-10-07T16:30:00Z,28.1324,-97.0345,1015.3,1111122 
TCOON,ioos:station:TCOON:146:1,2014-10-07T17:30:00Z,28.1324,-97.0345,1015.1,1111122 
TCOON,ioos:station:TCOON:146:1,2014-10-07T22:30:00Z,28.1324,-97.0345,1012.5,1111122 
TCOON,ioos:station:TCOON:146:1,2014-10-08T00:30:00Z,28.1324,-97.0345,1013.1,1111122 
TCOON,ioos:station:TCOON:146:1,2014-10-08T01:30:00Z,28.1324,-97.0345,1013.8,1111122 
TCOON,ioos:station:TCOON:146:1,2014-10-08T02:30:00Z,28.1324,-97.0345,1014.7,1111122 
TCOON,ioos:station:TCOON:146:1,2014-10-08T03:30:00Z,28.1324,-97.0345,1014.9,1111122 
TCOON,ioos:station:TCOON:146:1,2014-10-08T04:30:00Z,28.1324,-97.0345,1015.0,1111122 
TCOON,ioos:station:TCOON:146:1,2014-10-08T05:30:00Z,28.1324,-97.0345,1014.8,1111122 
TCOON,ioos:station:TCOON:146:1,2014-10-08T07:00:00Z,28.1324,-97.0345,1014.7,1111122 
TCOON,ioos:station:TCOON:146:1,2014-10-08T10:30:00Z,28.1324,-97.0345,1014.8,1111122 
TCOON,ioos:station:TCOON:146:1,2014-10-08T13:30:00Z,28.1324,-97.0345,1016.0,1111122 
TCOON,ioos:station:TCOON:146:1,2014-10-08T14:30:00Z,28.1324,-97.0345,1016.6,1111122 
TCOON,ioos:station:TCOON:146:1,2014-10-08T15:30:00Z,28.1324,-97.0345,1016.9,1111122 
TCOON,ioos:station:TCOON:146:1,2014-10-08T16:30:00Z,28.1324,-97.0345,1016.8,1111122 
TCOON,ioos:station:TCOON:146:1,2014-10-08T20:30:00Z,28.1324,-97.0345,1014.5,1111122 
TCOON,ioos:station:TCOON:146:1,2014-10-09T02:30:00Z,28.1324,-97.0345,1015.1,1111122 
TCOON,ioos:station:TCOON:146:1,2014-10-09T03:30:00Z,28.1324,-97.0345,1015.3,1111122 
TCOON,ioos:station:TCOON:146:1,2014-10-09T04:30:00Z,28.1324,-97.0345,1015.3,1111122 
TCOON,ioos:station:TCOON:146:1,2014-10-09T06:30:00Z,28.1324,-97.0345,1014.6,1111122 
TCOON,ioos:station:TCOON:146:1,2014-10-09T10:30:00Z,28.1324,-97.0345,1013.9,1111122 
TCOON,ioos:station:TCOON:146:1,2014-10-09T13:30:00Z,28.1324,-97.0345,1015.0,1111122 
TCOON,ioos:station:TCOON:146:1,2014-10-09T14:30:00Z,28.1324,-97.0345,1015.7,1111122 
TCOON,ioos:station:TCOON:146:1,2014-10-09T17:30:00Z,28.1324,-97.0345,1015.4,1111122 
TCOON,ioos:station:TCOON:146:1,2014-10-09T18:30:00Z,28.1324,-97.0345,1014.7,1111122 
TCOON,ioos:station:TCOON:146:1,2014-10-09T23:00:00Z,28.1324,-97.0345,1012.2,1111122 
TCOON,ioos:station:TCOON:146:1,2014-10-10T03:00:00Z,28.1324,-97.0345,1013.1,1111122 
TCOON,ioos:station:TCOON:146:1,2014-10-10T03:30:00Z,28.1324,-97.0345,1013.2,1111122 
TCOON,ioos:station:TCOON:146:1,2014-10-10T04:30:00Z,28.1324,-97.0345,1013.1,1111122 
TCOON,ioos:station:TCOON:146:1,2014-10-10T05:30:00Z,28.1324,-97.0345,1013.0,1111122 
TCOON,ioos:station:TCOON:146:1,2014-10-10T08:30:00Z,28.1324,-97.0345,1012.5,1111122 
TCOON,ioos:station:TCOON:146:1,2014-10-10T09:30:00Z,28.1324,-97.0345,1012.1,1111122 
TCOON,ioos:station:TCOON:146:1,2014-10-10T10:30:00Z,28.1324,-97.0345,1012.5,1111122 
TCOON,ioos:station:TCOON:146:1,2014-10-10T11:30:00Z,28.1324,-97.0345,1012.8,1111122 
TCOON,ioos:station:TCOON:146:1,2014-10-10T12:30:00Z,28.1324,-97.0345,1013.1,1111122 
TCOON,ioos:station:TCOON:146:1,2014-10-10T13:30:00Z,28.1324,-97.0345,1013.2,1111122 
TCOON,ioos:station:TCOON:146:1,2014-10-10T16:30:00Z,28.1324,-97.0345,1014.1,1111122 
TCOON,ioos:station:TCOON:146:1,2014-10-10T22:30:00Z,28.1324,-97.0345,1011.5,1111122 
TCOON,ioos:station:TCOON:146:1,2014-10-11T01:30:00Z,28.1324,-97.0345,1012.1,1111122 
TCOON,ioos:station:TCOON:146:1,2014-10-11T02:30:00Z,28.1324,-97.0345,1012.6,1111122 
TCOON,ioos:station:TCOON:146:1,2014-10-11T03:30:00Z,28.1324,-97.0345,1012.8,1111122 
TCOON,ioos:station:TCOON:146:1,2014-10-11T04:30:00Z,28.1324,-97.0345,1012.7,1111122 
TCOON,ioos:station:TCOON:146:1,2014-10-11T05:30:00Z,28.1324,-97.0345,1012.7,1111122 
TCOON,ioos:station:TCOON:146:1,2014-10-11T06:30:00Z,28.1324,-97.0345,1012.7,1111122 
TCOON,ioos:station:TCOON:146:1,2014-10-11T08:00:00Z,28.1324,-97.0345,1012.6,1111122 
TCOON,ioos:station:TCOON:146:1,2014-10-11T09:30:00Z,28.1324,-97.0345,1012.0,1111122 
TCOON,ioos:station:TCOON:146:1,2014-10-11T10:30:00Z,28.1324,-97.0345,1012.4,1111122 
TCOON,ioos:station:TCOON:146:1,2014-10-11T12:30:00Z,28.1324,-97.0345,1013.9,1111122 
TCOON,ioos:station:TCOON:146:1,2014-10-11T14:30:00Z,28.1324,-97.0345,1015.0,1111122 
TCOON,ioos:station:TCOON:146:1,2014-10-11T17:30:00Z,28.1324,-97.0345,1015.5,1111122 
TCOON,ioos:station:TCOON:146:1,2014-10-11T18:30:00Z,28.1324,-97.0345,1014.8,1111122 
TCOON,ioos:station:TCOON:146:1,2014-10-11T19:30:00Z,28.1324,-97.0345,1014.4,1111122 
TCOON,ioos:station:TCOON:146:1,2014-10-11T20:30:00Z,28.1324,-97.0345,1014.1,1111122 
TCOON,ioos:station:TCOON:146:1,2014-10-11T21:30:00Z,28.1324,-97.0345,1013.6,1111122 
TCOON,ioos:station:TCOON:146:1,2014-10-12T00:30:00Z,28.1324,-97.0345,1014.3,1111122 
TCOON,ioos:station:TCOON:146:1,2014-10-12T02:30:00Z,28.1324,-97.0345,1014.9,1111122 
TCOON,ioos:station:TCOON:146:1,2014-10-12T03:30:00Z,28.1324,-97.0345,1015.3,1111122 
TCOON,ioos:station:TCOON:146:1,2014-10-12T04:30:00Z,28.1324,-97.0345,1015.3,1111122 
TCOON,ioos:station:TCOON:146:1,2014-10-12T05:30:00Z,28.1324,-97.0345,1015.1,1111122 
TCOON,ioos:station:TCOON:146:1,2014-10-12T07:00:00Z,28.1324,-97.0345,1014.8,1111122 
TCOON,ioos:station:TCOON:146:1,2014-10-12T08:30:00Z,28.1324,-97.0345,1014.4,1111122 
TCOON,ioos:station:TCOON:146:1,2014-10-12T10:30:00Z,28.1324,-97.0345,1013.9,1111122 
TCOON,ioos:station:TCOON:146:1,2014-10-12T12:30:00Z,28.1324,-97.0345,1013.8,1111122 
TCOON,ioos:station:TCOON:146:1,2014-10-12T18:30:00Z,28.1324,-97.0345,1012.6,1111122 
TCOON,ioos:station:TCOON:146:1,2014-10-12T20:30:00Z,28.1324,-97.0345,1010.0,1111122 
TCOON,ioos:station:TCOON:146:1,2014-10-12T22:30:00Z,28.1324,-97.0345,1008.8,1111122 
TCOON,ioos:station:TCOON:146:1,2014-10-13T03:30:00Z,28.1324,-97.0345,1008.5,1111122 
TCOON,ioos:station:TCOON:146:1,2014-10-13T04:30:00Z,28.1324,-97.0345,1008.4,1111122 
TCOON,ioos:station:TCOON:146:1,2014-10-13T05:30:00Z,28.1324,-97.0345,1008.2,1111122 
TCOON,ioos:station:TCOON:146:1,2014-10-13T06:30:00Z,28.1324,-97.0345,1008.1,1111122 
TCOON,ioos:station:TCOON:146:1,2014-10-13T12:30:00Z,28.1324,-97.0345,1006.7,1111122 
TCOON,ioos:station:TCOON:146:1,2014-10-13T14:30:00Z,28.1324,-97.0345,1008.3,1111122 
TCOON,ioos:station:TCOON:146:1,2014-10-13T18:30:00Z,28.1324,-97.0345,1008.9,1111122 
TCOON,ioos:station:TCOON:146:1,2014-10-13T20:30:00Z,28.1324,-97.0345,1008.8,1111122 
TCOON,ioos:station:TCOON:146:1,2014-10-13T22:30:00Z,28.1324,-97.0345,1009.6,1111122 
TCOON,ioos:station:TCOON:146:1,2014-10-13T23:30:00Z,28.1324,-97.0345,1010.9,1111122 
TCOON,ioos:station:TCOON:146:1,2014-10-14T00:30:00Z,28.1324,-97.0345,1011.9,1111122 
TCOON,ioos:station:TCOON:146:1,2014-10-14T01:30:00Z,28.1324,-97.0345,1013.4,1111122 
TCOON,ioos:station:TCOON:146:1,2014-10-14T04:30:00Z,28.1324,-97.0345,1016.8,1111122 
TCOON,ioos:station:TCOON:146:1,2014-10-14T05:30:00Z,28.1324,-97.0345,1017.3,1111122 
TCOON,ioos:station:TCOON:146:1,2014-10-14T08:30:00Z,28.1324,-97.0345,1018.3,1111122 
TCOON,ioos:station:TCOON:146:1,2014-10-14T10:30:00Z,28.1324,-97.0345,1018.4,1111122 
TCOON,ioos:station:TCOON:146:1,2014-10-14T13:30:00Z,28.1324,-97.0345,1020.3,1111122 
TCOON,ioos:station:TCOON:146:1,2014-10-14T15:30:00Z,28.1324,-97.0345,1021.4,1111122 
TCOON,ioos:station:TCOON:146:1,2014-10-14T17:30:00Z,28.1324,-97.0345,1020.6,1111122 
TCOON,ioos:station:TCOON:146:1,2014-10-14T18:30:00Z,28.1324,-97.0345,1019.5,1111122 
TCOON,ioos:station:TCOON:146:1,2014-10-15T04:30:00Z,28.1324,-97.0345,1019.8,1111122 
TCOON,ioos:station:TCOON:146:1,2014-10-15T05:30:00Z,28.1324,-97.0345,1019.7,1111122 
TCOON,ioos:station:TCOON:146:1,2014-10-15T07:00:00Z,28.1324,-97.0345,1019.2,1111122 
TCOON,ioos:station:TCOON:146:1,2014-10-15T08:30:00Z,28.1324,-97.0345,1019.0,1111122 
TCOON,ioos:station:TCOON:146:1,2014-10-15T11:30:00Z,28.1324,-97.0345,1018.8,1111122 
TCOON,ioos:station:TCOON:146:1,2014-10-15T12:30:00Z,28.1324,-97.0345,1019.1,1111122 
TCOON,ioos:station:TCOON:146:1,2014-10-15T13:30:00Z,28.1324,-97.0345,1019.5,1111122 
TCOON,ioos:station:TCOON:146:1,2014-10-16T04:30:00Z,28.1324,-97.0345,1017.1,1111122 
TCOON,ioos:station:TCOON:146:1,2014-10-16T05:30:00Z,28.1324,-97.0345,1016.6,1111122 
TCOON,ioos:station:TCOON:146:1,2014-10-16T06:30:00Z,28.1324,-97.0345,1016.3,1111122 
TCOON,ioos:station:TCOON:146:1,2014-10-16T08:30:00Z,28.1324,-97.0345,1016.0,1111122 
TCOON,ioos:station:TCOON:146:1,2014-10-16T09:30:00Z,28.1324,-97.0345,1015.6,1111122 
TCOON,ioos:station:TCOON:146:1,2014-10-16T12:30:00Z,28.1324,-97.0345,1016.1,1111122 
TCOON,ioos:station:TCOON:146:1,2014-10-16T16:30:00Z,28.1324,-97.0345,1017.1,1111122 
TCOON,ioos:station:TCOON:146:1,2014-10-16T17:30:00Z,28.1324,-97.0345,1016.6,1111122 
TCOON,ioos:station:TCOON:146:1,2014-10-16T18:30:00Z,28.1324,-97.0345,1015.7,1111122 
TCOON,ioos:station:TCOON:146:1,2014-10-16T20:30:00Z,28.1324,-97.0345,1014.1,1111122 
TCOON,ioos:station:TCOON:146:1,2014-10-16T21:30:00Z,28.1324,-97.0345,1013.7,1111122 
TCOON,ioos:station:TCOON:146:1,2014-10-16T22:30:00Z,28.1324,-97.0345,1013.6,1111122 
TCOON,ioos:station:TCOON:146:1,2014-10-17T02:30:00Z,28.1324,-97.0345,1014.0,1111122 
TCOON,ioos:station:TCOON:146:1,2014-10-17T03:30:00Z,28.1324,-97.0345,1014.1,1111122 
TCOON,ioos:station:TCOON:146:1,2014-10-17T04:30:00Z,28.1324,-97.0345,1013.9,1111122 
TCOON,ioos:station:TCOON:146:1,2014-10-17T05:30:00Z,28.1324,-97.0345,1013.4,1111122 
TCOON,ioos:station:TCOON:146:1,2014-10-17T06:30:00Z,28.1324,-97.0345,1012.9,1111122 
TCOON,ioos:station:TCOON:146:1,2014-10-17T09:30:00Z,28.1324,-97.0345,1011.8,1111122 
TCOON,ioos:station:TCOON:146:1,2014-10-17T10:30:00Z,28.1324,-97.0345,1012.1,1111122 
TCOON,ioos:station:TCOON:146:1,2014-10-17T13:30:00Z,28.1324,-97.0345,1013.9,1111122 
TCOON,ioos:station:TCOON:146:1,2014-10-17T14:30:00Z,28.1324,-97.0345,1014.5,1111122 
TCOON,ioos:station:TCOON:146:1,2014-10-17T16:30:00Z,28.1324,-97.0345,1014.9,1111122 
TCOON,ioos:station:TCOON:146:1,2014-10-20T15:30:00Z,28.1324,-97.0345,1016.4,1111122 
TCOON,ioos:station:TCOON:146:1,2014-10-20T17:30:00Z,28.1324,-97.0345,1016.0,1111122 
TCOON,ioos:station:TCOON:146:1,2014-10-20T18:30:00Z,28.1324,-97.0345,1015.3,1111122 
TCOON,ioos:station:TCOON:146:1,2014-10-20T20:30:00Z,28.1324,-97.0345,1014.4,1111122 
TCOON,ioos:station:TCOON:146:1,2014-10-20T22:30:00Z,28.1324,-97.0345,1014.1,1111122 
TCOON,ioos:station:TCOON:146:1,2014-10-21T01:30:00Z,28.1324,-97.0345,1014.7,1111122 
TCOON,ioos:station:TCOON:146:1,2014-10-21T03:00:00Z,28.1324,-97.0345,1015.3,1111122 
TCOON,ioos:station:TCOON:146:1,2014-10-21T04:30:00Z,28.1324,-97.0345,1015.4,1111122 
TCOON,ioos:station:TCOON:146:1,2014-10-21T05:30:00Z,28.1324,-97.0345,1015.1,1111122 
TCOON,ioos:station:TCOON:146:1,2014-10-21T06:30:00Z,28.1324,-97.0345,1014.9,1111122 
TCOON,ioos:station:TCOON:146:1,2014-10-21T07:30:00Z,28.1324,-97.0345,1014.8,1111122 
TCOON,ioos:station:TCOON:146:1,2014-10-21T09:30:00Z,28.1324,-97.0345,1014.4,1111122 
TCOON,ioos:station:TCOON:146:1,2014-10-21T13:30:00Z,28.1324,-97.0345,1016.0,1111122 
TCOON,ioos:station:TCOON:146:1,2014-10-21T20:30:00Z,28.1324,-97.0345,1014.1,1111122 
TCOON,ioos:station:TCOON:146:1,2014-10-21T22:30:00Z,28.1324,-97.0345,1013.8,1111122 
TCOON,ioos:station:TCOON:146:1,2014-10-22T00:30:00Z,28.1324,-97.0345,1014.7,1111122 
TCOON,ioos:station:TCOON:146:1,2014-10-22T01:30:00Z,28.1324,-97.0345,1015.2,1111122 
TCOON,ioos:station:TCOON:146:1,2014-10-22T02:30:00Z,28.1324,-97.0345,1015.8,1111122 
TCOON,ioos:station:TCOON:146:1,2014-10-22T04:30:00Z,28.1324,-97.0345,1016.1,1111122 
TCOON,ioos:station:TCOON:146:1,2014-10-22T06:30:00Z,28.1324,-97.0345,1015.6,1111122 
TCOON,ioos:station:TCOON:146:1,2014-10-22T07:30:00Z,28.1324,-97.0345,1015.4,1111122 
TCOON,ioos:station:TCOON:146:1,2014-10-22T08:30:00Z,28.1324,-97.0345,1015.2,1111122 
TCOON,ioos:station:TCOON:146:1,2014-10-22T09:30:00Z,28.1324,-97.0345,1015.0,1111122 
TCOON,ioos:station:TCOON:146:1,2014-10-22T11:30:00Z,28.1324,-97.0345,1015.7,1111122 
TCOON,ioos:station:TCOON:146:1,2014-10-22T13:30:00Z,28.1324,-97.0345,1016.9,1111122 
TCOON,ioos:station:TCOON:146:1,2014-10-22T14:30:00Z,28.1324,-97.0345,1017.6,1111122 
TCOON,ioos:station:TCOON:146:1,2014-10-22T15:30:00Z,28.1324,-97.0345,1018.2,1111122 
TCOON,ioos:station:TCOON:146:1,2014-10-22T16:30:00Z,28.1324,-97.0345,1018.3,1111122 
TCOON,ioos:station:TCOON:146:1,2014-10-22T18:30:00Z,28.1324,-97.0345,1017.4,1111122 
TCOON,ioos:station:TCOON:146:1,2014-10-22T19:30:00Z,28.1324,-97.0345,1016.6,1111122 
TCOON,ioos:station:TCOON:146:1,2014-10-22T20:30:00Z,28.1324,-97.0345,1016.0,1111122 
TCOON,ioos:station:TCOON:146:1,2014-10-22T21:30:00Z,28.1324,-97.0345,1015.9,1111122 
TCOON,ioos:station:TCOON:146:1,2014-10-22T22:30:00Z,28.1324,-97.0345,1015.9,1111122 
TCOON,ioos:station:TCOON:146:1,2014-10-22T23:30:00Z,28.1324,-97.0345,1016.4,1111122 
TCOON,ioos:station:TCOON:146:1,2014-10-23T02:30:00Z,28.1324,-97.0345,1017.8,1111122 
TCOON,ioos:station:TCOON:146:1,2014-10-23T03:30:00Z,28.1324,-97.0345,1018.1,1111122 
TCOON,ioos:station:TCOON:146:1,2014-10-23T04:30:00Z,28.1324,-97.0345,1018.2,1111122 
TCOON,ioos:station:TCOON:146:1,2014-10-23T05:30:00Z,28.1324,-97.0345,1018.0,1111122 
TCOON,ioos:station:TCOON:146:1,2014-10-23T07:00:00Z,28.1324,-97.0345,1017.4,1111122 
TCOON,ioos:station:TCOON:146:1,2014-10-23T07:30:00Z,28.1324,-97.0345,1017.4,1111122 
TCOON,ioos:station:TCOON:146:1,2014-10-23T09:00:00Z,28.1324,-97.0345,1017.2,1111122 
TCOON,ioos:station:TCOON:146:1,2014-10-23T10:00:00Z,28.1324,-97.0345,1017.0,1111122 
TCOON,ioos:station:TCOON:146:1,2014-10-23T11:00:00Z,28.1324,-97.0345,1017.2,1111122 
TCOON,ioos:station:TCOON:146:1,2014-10-23T12:30:00Z,28.1324,-97.0345,1017.9,1111122 
TCOON,ioos:station:TCOON:146:1,2014-10-23T13:30:00Z,28.1324,-97.0345,1018.7,1111122 
TCOON,ioos:station:TCOON:146:1,2014-10-23T14:30:00Z,28.1324,-97.0345,1019.2,1111122 
TCOON,ioos:station:TCOON:146:1,2014-10-23T16:30:00Z,28.1324,-97.0345,1019.9,1111122 
TCOON,ioos:station:TCOON:146:1,2014-10-23T17:30:00Z,28.1324,-97.0345,1019.7,1111122 
TCOON,ioos:station:TCOON:146:1,2014-10-23T19:30:00Z,28.1324,-97.0345,1018.0,1111122 
TCOON,ioos:station:TCOON:146:1,2014-10-23T21:00:00Z,28.1324,-97.0345,1017.2,1111122 
TCOON,ioos:station:TCOON:146:1,2014-10-23T21:30:00Z,28.1324,-97.0345,1017.2,1111122 
TCOON,ioos:station:TCOON:146:1,2014-10-23T22:30:00Z,28.1324,-97.0345,1017.3,1111122 
TCOON,ioos:station:TCOON:146:1,2014-10-24T00:30:00Z,28.1324,-97.0345,1017.8,1111122 
TCOON,ioos:station:TCOON:146:1,2014-10-24T01:30:00Z,28.1324,-97.0345,1018.2,1111122 
TCOON,ioos:station:TCOON:146:1,2014-10-24T02:30:00Z,28.1324,-97.0345,1018.7,1111122 
TCOON,ioos:station:TCOON:146:1,2014-10-24T05:30:00Z,28.1324,-97.0345,1018.7,1111122 
TCOON,ioos:station:TCOON:146:1,2014-10-24T06:30:00Z,28.1324,-97.0345,1018.7,1111122 
TCOON,ioos:station:TCOON:146:1,2014-10-24T08:30:00Z,28.1324,-97.0345,1018.8,1111122 
TCOON,ioos:station:TCOON:146:1,2014-10-24T09:30:00Z,28.1324,-97.0345,1018.8,1111122 
TCOON,ioos:station:TCOON:146:1,2014-10-24T10:30:00Z,28.1324,-97.0345,1019.0,1111122 
TCOON,ioos:station:TCOON:146:1,2014-10-24T14:30:00Z,28.1324,-97.0345,1020.8,1111122 
TCOON,ioos:station:TCOON:146:1,2014-10-24T16:30:00Z,28.1324,-97.0345,1021.5,1111122 
TCOON,ioos:station:TCOON:146:1,2014-10-24T17:30:00Z,28.1324,-97.0345,1021.1,1111122 
TCOON,ioos:station:TCOON:146:1,2014-10-24T18:30:00Z,28.1324,-97.0345,1020.2,1111122 
TCOON,ioos:station:TCOON:146:1,2014-10-24T20:30:00Z,28.1324,-97.0345,1018.6,1111122 
TCOON,ioos:station:TCOON:146:1,2014-10-25T03:30:00Z,28.1324,-97.0345,1020.2,1111122 
TCOON,ioos:station:TCOON:146:1,2014-10-25T04:30:00Z,28.1324,-97.0345,1020.3,1111122 
TCOON,ioos:station:TCOON:146:1,2014-10-25T07:30:00Z,28.1324,-97.0345,1020.2,1111122 
TCOON,ioos:station:TCOON:146:1,2014-10-25T09:30:00Z,28.1324,-97.0345,1019.9,1111122 
TCOON,ioos:station:TCOON:146:1,2014-10-25T15:30:00Z,28.1324,-97.0345,1022.1,1111122 
TCOON,ioos:station:TCOON:146:1,2014-10-25T16:30:00Z,28.1324,-97.0345,1022.0,1111122 
TCOON,ioos:station:TCOON:146:1,2014-10-25T22:30:00Z,28.1324,-97.0345,1019.0,1111122 
TCOON,ioos:station:TCOON:146:1,2014-10-26T00:30:00Z,28.1324,-97.0345,1018.9,1111122 
TCOON,ioos:station:TCOON:146:1,2014-10-26T02:30:00Z,28.1324,-97.0345,1019.2,1111122 
TCOON,ioos:station:TCOON:146:1,2014-10-26T03:30:00Z,28.1324,-97.0345,1019.2,1111122 
TCOON,ioos:station:TCOON:146:1,2014-10-26T06:30:00Z,28.1324,-97.0345,1018.3,1111122 
TCOON,ioos:station:TCOON:146:1,2014-10-26T09:30:00Z,28.1324,-97.0345,1017.3,1111122 
TCOON,ioos:station:TCOON:146:1,2014-10-26T13:30:00Z,28.1324,-97.0345,1017.9,1111122 
TCOON,ioos:station:TCOON:146:1,2014-10-26T15:30:00Z,28.1324,-97.0345,1018.6,1111122 
TCOON,ioos:station:TCOON:146:1,2014-10-26T17:30:00Z,28.1324,-97.0345,1017.8,1111122 
TCOON,ioos:station:TCOON:146:1,2014-10-26T18:30:00Z,28.1324,-97.0345,1016.9,1111122 
TCOON,ioos:station:TCOON:146:1,2014-10-26T20:30:00Z,28.1324,-97.0345,1015.1,1111122 
TCOON,ioos:station:TCOON:146:1,2014-10-26T22:30:00Z,28.1324,-97.0345,1014.4,1111122 
TCOON,ioos:station:TCOON:146:1,2014-10-27T00:30:00Z,28.1324,-97.0345,1014.4,1111122 
TCOON,ioos:station:TCOON:146:1,2014-10-27T01:30:00Z,28.1324,-97.0345,1014.5,1111122 
TCOON,ioos:station:TCOON:146:1,2014-10-27T04:30:00Z,28.1324,-97.0345,1014.3,1111122 
TCOON,ioos:station:TCOON:146:1,2014-10-27T05:30:00Z,28.1324,-97.0345,1014.0,1111122 
TCOON,ioos:station:TCOON:146:1,2014-10-27T06:30:00Z,28.1324,-97.0345,1013.8,1111122 
TCOON,ioos:station:TCOON:146:1,2014-10-27T10:30:00Z,28.1324,-97.0345,1013.3,1111122 
TCOON,ioos:station:TCOON:146:1,2014-10-27T12:30:00Z,28.1324,-97.0345,1013.2,1111122 
TCOON,ioos:station:TCOON:146:1,2014-10-27T15:30:00Z,28.1324,-97.0345,1014.1,1111122 
TCOON,ioos:station:TCOON:146:1,2014-10-27T16:30:00Z,28.1324,-97.0345,1014.3,1111122 
TCOON,ioos:station:TCOON:146:1,2014-10-27T17:30:00Z,28.1324,-97.0345,1013.9,1111122 
TCOON,ioos:station:TCOON:146:1,2014-10-27T22:30:00Z,28.1324,-97.0345,1011.4,1111122 
TCOON,ioos:station:TCOON:146:1,2014-10-28T01:30:00Z,28.1324,-97.0345,1012.4,1111122 